Time,TemperatureF,DewpointF,PressureIn,WindDirection,WindDirectionDegrees,WindSpeedMPH,WindSpeedGustMPH,Humidity,HourlyPrecipIn,Conditions,Clouds,dailyrainin,SoftwareType,DateUTC
2013-05-07 00:02:00,60.0,-99.9,-100.00,NNE,17,1.0,-999.0,-999,0.00,,,0.00,,2013-05-07 05:02:00,
2013-05-07 00:13:00,60.0,-99.9,-100.00,NNE,17,1.0,-999.0,-999,0.00,,,0.00,,2013-05-07 05:13:00,
2013-05-07 00:22:00,60.0,-99.9,-100.00,NNE,17,1.0,-999.0,-999,0.00,,,0.00,,2013-05-07 05:22:00,
2013-05-07 00:32:00,60.0,-99.9,-100.00,NNW,333,1.0,-999.0,-999,0.00,,,0.00,,2013-05-07 05:32:00,
2013-05-07 00:43:00,60.0,-99.9,-100.00,NNW,333,1.0,-999.0,-999,0.00,,,0.00,,2013-05-07 05:43:00,
2013-05-07 00:52:00,60.0,-99.9,-100.00,NNW,333,1.0,-999.0,-999,0.00,,,0.00,,2013-05-07 05:52:00,
2013-05-07 01:02:00,59.0,-99.9,-100.00,North,2,2.0,-999.0,-999,0.00,,,0.00,,2013-05-07 06:02:00,
2013-05-07 01:12:00,59.0,-99.9,-100.00,North,2,2.0,-999.0,-999,0.00,,,0.00,,2013-05-07 06:12:00,
2013-05-07 01:22:00,59.0,-99.9,-100.00,North,2,2.0,-999.0,-999,0.00,,,0.00,,2013-05-07 06:22:00,
2013-05-07 01:32:00,59.0,-99.9,-100.00,NNE,14,1.0,-999.0,-999,0.00,,,0.00,,2013-05-07 06:32:00,
2013-05-07 01:42:00,59.0,-99.9,-100.00,NNE,14,1.0,-999.0,-999,0.00,,,0.00,,2013-05-07 06:42:00,
2013-05-07 01:52:00,59.0,-99.9,-100.00,NNE,14,1.0,-999.0,-999,0.00,,,0.00,,2013-05-07 06:52:00,
2013-05-07 02:02:00,59.0,-99.9,-100.00,NW,305,1.0,-999.0,-999,0.00,,,0.00,,2013-05-07 07:02:00,
2013-05-07 02:11:00,59.0,-99.9,-100.00,NW,305,1.0,-999.0,-999,0.00,,,0.00,,2013-05-07 07:11:00,
2013-05-07 02:22:00,59.0,-99.9,-100.00,NW,305,1.0,-999.0,-999,0.00,,,0.00,,2013-05-07 07:22:00,
2013-05-07 02:32:00,58.0,-99.9,-100.00,NW,324,3.0,-999.0,-999,0.00,,,0.00,,2013-05-07 07:32:00,
2013-05-07 02:42:00,58.0,-99.9,-100.00,NW,324,3.0,-999.0,-999,0.00,,,0.00,,2013-05-07 07:42:00,
2013-05-07 02:53:00,58.0,-99.9,-100.00,NW,324,3.0,-999.0,-999,0.00,,,0.00,,2013-05-07 07:53:00,
2013-05-07 03:02:00,57.0,-99.9,-100.00,NNW,348,2.0,-999.0,-999,0.00,,,0.00,,2013-05-07 08:02:00,
2013-05-07 03:11:00,57.0,-99.9,-100.00,NNW,348,2.0,-999.0,-999,0.00,,,0.00,,2013-05-07 08:11:00,
2013-05-07 03:22:00,57.0,-99.9,-100.00,NNW,348,2.0,-999.0,-999,0.00,,,0.00,,2013-05-07 08:22:00,
2013-05-07 03:32:00,57.0,-99.9,-100.00,NW,312,2.0,-999.0,-999,0.00,,,0.00,,2013-05-07 08:32:00,
2013-05-07 03:42:00,57.0,-99.9,-100.00,NW,312,2.0,-999.0,-999,0.00,,,0.00,,2013-05-07 08:42:00,
2013-05-07 03:52:00,57.0,-99.9,-100.00,NW,312,2.0,-999.0,-999,0.00,,,0.00,,2013-05-07 08:52:00,
2013-05-07 04:02:00,57.0,-99.9,-100.00,NW,309,0.0,-999.0,-999,0.00,,,0.00,,2013-05-07 09:02:00,
2013-05-07 04:12:00,57.0,-99.9,-100.00,NW,309,0.0,-999.0,-999,0.00,,,0.00,,2013-05-07 09:12:00,
2013-05-07 04:23:00,57.0,-99.9,-100.00,NW,309,0.0,-999.0,-999,0.00,,,0.00,,2013-05-07 09:23:00,
2013-05-07 04:33:00,57.0,-99.9,-100.00,NW,326,1.0,-999.0,-999,0.00,,,0.00,,2013-05-07 09:33:00,
2013-05-07 04:43:00,57.0,-99.9,-100.00,NW,326,1.0,-999.0,-999,0.00,,,0.00,,2013-05-07 09:43:00,
2013-05-07 04:53:00,57.0,-99.9,-100.00,NW,326,1.0,-999.0,-999,0.00,,,0.00,,2013-05-07 09:53:00,
2013-05-07 05:03:00,57.0,-99.9,-100.00,NW,314,2.0,-999.0,-999,0.00,,,0.00,,2013-05-07 10:03:00,
2013-05-07 05:13:00,57.0,-99.9,-100.00,NW,314,2.0,-999.0,-999,0.00,,,0.00,,2013-05-07 10:13:00,
2013-05-07 05:23:00,57.0,-99.9,-100.00,NW,314,2.0,-999.0,-999,0.00,,,0.00,,2013-05-07 10:23:00,
2013-05-07 05:33:00,56.0,-99.9,-100.00,NW,322,3.0,-999.0,-999,0.00,,,0.00,,2013-05-07 10:33:00,
2013-05-07 05:42:00,56.0,-99.9,-100.00,NW,322,3.0,-999.0,-999,0.00,,,0.00,,2013-05-07 10:42:00,
2013-05-07 05:52:00,56.0,-99.9,-100.00,NW,322,3.0,-999.0,-999,0.00,,,0.00,,2013-05-07 10:52:00,
2013-05-07 06:03:00,55.0,-99.9,-100.00,NNW,341,2.0,-999.0,-999,0.00,,,0.00,,2013-05-07 11:03:00,
2013-05-07 06:12:00,55.0,-99.9,-100.00,NNW,341,2.0,-999.0,-999,0.00,,,0.00,,2013-05-07 11:12:00,
2013-05-07 06:22:00,55.0,-99.9,-100.00,NNW,341,2.0,-999.0,-999,0.00,,,0.00,,2013-05-07 11:22:00,
2013-05-07 06:32:00,55.0,-99.9,-100.00,WNW,295,2.0,-999.0,-999,0.00,,,0.00,,2013-05-07 11:32:00,
2013-05-07 06:42:00,55.0,-99.9,-100.00,WNW,295,2.0,-999.0,-999,0.00,,,0.00,,2013-05-07 11:42:00,
2013-05-07 06:52:00,55.0,-99.9,-100.00,WNW,295,2.0,-999.0,-999,0.00,,,0.00,,2013-05-07 11:52:00,
2013-05-07 07:02:00,54.0,-99.9,-100.00,NW,325,3.0,-999.0,-999,0.00,,,0.00,,2013-05-07 12:02:00,
2013-05-07 07:12:00,54.0,-99.9,-100.00,NW,325,3.0,-999.0,-999,0.00,,,0.00,,2013-05-07 12:12:00,
2013-05-07 07:22:00,54.0,-99.9,-100.00,NW,325,3.0,-999.0,-999,0.00,,,0.00,,2013-05-07 12:22:00,
2013-05-07 07:32:00,55.0,-99.9,-100.00,NW,312,2.0,-999.0,-999,0.00,,,0.00,,2013-05-07 12:32:00,
2013-05-07 07:42:00,55.0,-99.9,-100.00,NW,312,2.0,-999.0,-999,0.00,,,0.00,,2013-05-07 12:42:00,
2013-05-07 07:52:00,55.0,-99.9,-100.00,NW,312,2.0,-999.0,-999,0.00,,,0.00,,2013-05-07 12:52:00,
2013-05-07 08:02:00,55.0,-99.9,-100.00,NW,312,5.0,-999.0,-999,0.00,,,0.00,,2013-05-07 13:02:00,
2013-05-07 08:11:00,55.0,-99.9,-100.00,NW,312,5.0,-999.0,-999,0.00,,,0.00,,2013-05-07 13:11:00,
2013-05-07 08:22:00,55.0,-99.9,-100.00,NW,312,5.0,-999.0,-999,0.00,,,0.00,,2013-05-07 13:22:00,
2013-05-07 08:32:00,57.0,-99.9,-100.00,NW,325,4.0,-999.0,-999,0.00,,,0.00,,2013-05-07 13:32:00,
2013-05-07 08:42:00,57.0,-99.9,-100.00,NW,325,4.0,-999.0,-999,0.00,,,0.00,,2013-05-07 13:42:00,
2013-05-07 08:52:00,57.0,-99.9,-100.00,NW,325,4.0,-999.0,-999,0.00,,,0.00,,2013-05-07 13:52:00,
2013-05-07 09:02:00,63.0,-99.9,-100.00,NNW,342,2.0,-999.0,-999,0.00,,,0.00,,2013-05-07 14:02:00,
2013-05-07 09:11:00,63.0,-99.9,-100.00,NNW,342,2.0,-999.0,-999,0.00,,,0.00,,2013-05-07 14:11:00,
2013-05-07 09:22:00,63.0,-99.9,-100.00,NNW,342,2.0,-999.0,-999,0.00,,,0.00,,2013-05-07 14:22:00,
2013-05-07 09:32:00,65.0,-99.9,-100.00,NNW,329,4.0,-999.0,-999,0.00,,,0.00,,2013-05-07 14:32:00,
2013-05-07 09:42:00,65.0,-99.9,-100.00,NNW,329,4.0,-999.0,-999,0.00,,,0.00,,2013-05-07 14:42:00,
2013-05-07 09:52:00,65.0,-99.9,-100.00,NNW,329,4.0,-999.0,-999,0.00,,,0.00,,2013-05-07 14:52:00,
2013-05-07 10:00:00,65.0,-99.9,-100.00,NNW,328,1.0,-999.0,-999,0.00,,,0.00,,2013-05-07 15:00:00,
2013-05-07 10:01:00,62.0,-99.9,-100.00,NNW,329,2.0,-999.0,-999,0.00,,,0.00,,2013-05-07 15:01:00,
2013-05-07 10:12:00,62.0,-99.9,-100.00,NNW,329,2.0,-999.0,-999,0.00,,,0.00,,2013-05-07 15:12:00,
2013-05-07 10:22:00,62.0,-99.9,-100.00,NNW,329,2.0,-999.0,-999,0.00,,,0.00,,2013-05-07 15:22:00,
2013-05-07 10:33:00,65.0,-99.9,-100.00,NNW,328,1.0,-999.0,-999,0.00,,,0.00,,2013-05-07 15:33:00,
2013-05-07 10:43:00,65.0,-99.9,-100.00,NNW,328,1.0,-999.0,-999,0.00,,,0.00,,2013-05-07 15:43:00,
2013-05-07 10:53:00,65.0,-99.9,-100.00,NNW,328,1.0,-999.0,-999,0.00,,,0.00,,2013-05-07 15:53:00,
2013-05-07 13:32:00,74.0,-99.9,-100.00,North,7,5.0,-999.0,-999,0.00,,,0.00,,2013-05-07 18:32:00,
2013-05-07 13:42:00,74.0,-99.9,-100.00,North,7,5.0,-999.0,-999,0.00,,,0.00,,2013-05-07 18:42:00,
2013-05-07 13:52:00,74.0,-99.9,-100.00,North,7,5.0,-999.0,-999,0.00,,,0.00,,2013-05-07 18:52:00,
2013-05-07 14:02:00,75.0,-99.9,-100.00,North,357,2.0,-999.0,-999,0.00,,,0.00,,2013-05-07 19:02:00,
2013-05-07 14:11:00,75.0,-99.9,-100.00,North,357,2.0,-999.0,-999,0.00,,,0.00,,2013-05-07 19:11:00,
2013-05-07 14:22:00,75.0,-99.9,-100.00,North,357,2.0,-999.0,-999,0.00,,,0.00,,2013-05-07 19:22:00,
2013-05-07 14:32:00,75.0,-99.9,-100.00,NNE,33,4.0,-999.0,-999,0.00,,,0.00,,2013-05-07 19:32:00,
2013-05-07 14:42:00,75.0,-99.9,-100.00,NNE,33,4.0,-999.0,-999,0.00,,,0.00,,2013-05-07 19:42:00,
2013-05-07 14:52:00,75.0,-99.9,-100.00,NNE,33,4.0,-999.0,-999,0.00,,,0.00,,2013-05-07 19:52:00,
2013-05-07 15:02:00,75.0,-99.9,-100.00,North,1,6.0,-999.0,-999,0.00,,,0.00,,2013-05-07 20:02:00,
2013-05-07 15:12:00,75.0,-99.9,-100.00,North,1,6.0,-999.0,-999,0.00,,,0.00,,2013-05-07 20:12:00,
2013-05-07 15:22:00,75.0,-99.9,-100.00,North,1,6.0,-999.0,-999,0.00,,,0.00,,2013-05-07 20:22:00,
2013-05-07 15:32:00,75.0,-99.9,-100.00,NNE,25,3.0,-999.0,-999,0.00,,,0.00,,2013-05-07 20:32:00,
2013-05-07 15:42:00,75.0,-99.9,-100.00,NNE,25,3.0,-999.0,-999,0.00,,,0.00,,2013-05-07 20:42:00,
2013-05-07 15:52:00,75.0,-99.9,-100.00,NNE,25,3.0,-999.0,-999,0.00,,,0.00,,2013-05-07 20:52:00,
2013-05-07 16:02:00,75.0,-99.9,-100.00,NNE,31,2.0,-999.0,-999,0.00,,,0.00,,2013-05-07 21:02:00,
2013-05-07 16:11:00,75.0,-99.9,-100.00,NNE,31,2.0,-999.0,-999,0.00,,,0.00,,2013-05-07 21:11:00,
2013-05-07 16:22:00,75.0,-99.9,-100.00,NNE,31,2.0,-999.0,-999,0.00,,,0.00,,2013-05-07 21:22:00,
2013-05-07 16:33:00,76.0,-99.9,-100.00,NNE,20,3.0,-999.0,-999,0.00,,,0.00,,2013-05-07 21:33:00,
2013-05-07 16:43:00,76.0,-99.9,-100.00,NNE,20,3.0,-999.0,-999,0.00,,,0.00,,2013-05-07 21:43:00,
2013-05-07 16:53:00,76.0,-99.9,-100.00,NNE,20,3.0,-999.0,-999,0.00,,,0.00,,2013-05-07 21:53:00,
2013-05-07 17:02:00,77.0,-99.9,-100.00,NE,46,2.0,-999.0,-999,0.00,,,0.00,,2013-05-07 22:02:00,
2013-05-07 17:13:00,77.0,-99.9,-100.00,NE,46,2.0,-999.0,-999,0.00,,,0.00,,2013-05-07 22:13:00,
2013-05-07 17:23:00,77.0,-99.9,-100.00,NE,46,2.0,-999.0,-999,0.00,,,0.00,,2013-05-07 22:23:00,
2013-05-07 17:33:00,78.0,-99.9,-100.00,North,-999,1.0,-999.0,-999,0.00,,,0.00,,2013-05-07 22:33:00,
2013-05-07 17:42:00,78.0,-99.9,-100.00,North,-999,1.0,-999.0,-999,0.00,,,0.00,,2013-05-07 22:42:00,
2013-05-07 17:52:00,78.0,-99.9,-100.00,North,-999,1.0,-999.0,-999,0.00,,,0.00,,2013-05-07 22:52:00,
2013-05-07 18:02:00,76.0,-99.9,-100.00,WNW,287,1.0,-999.0,-999,0.00,,,0.00,,2013-05-07 23:02:00,
2013-05-07 18:12:00,76.0,-99.9,-100.00,WNW,287,1.0,-999.0,-999,0.00,,,0.00,,2013-05-07 23:12:00,
2013-05-07 18:22:00,76.0,-99.9,-100.00,WNW,287,1.0,-999.0,-999,0.00,,,0.00,,2013-05-07 23:22:00,
2013-05-07 18:32:00,75.0,-99.9,-100.00,NNE,28,2.0,-999.0,-999,0.00,,,0.00,,2013-05-07 23:32:00,
2013-05-07 18:42:00,75.0,-99.9,-100.00,NNE,28,2.0,-999.0,-999,0.00,,,0.00,,2013-05-07 23:42:00,
2013-05-07 18:52:00,75.0,-99.9,-100.00,NNE,28,2.0,-999.0,-999,0.00,,,0.00,,2013-05-07 23:52:00,
2013-05-07 19:02:00,76.0,-99.9,-100.00,NNW,344,4.0,-999.0,-999,0.00,,,0.00,,2013-05-08 00:02:00,
2013-05-07 19:12:00,76.0,-99.9,-100.00,NNW,344,4.0,-999.0,-999,0.00,,,0.00,,2013-05-08 00:12:00,
2013-05-07 19:22:00,76.0,-99.9,-100.00,NNW,344,4.0,-999.0,-999,0.00,,,0.00,,2013-05-08 00:22:00,
2013-05-07 19:32:00,74.0,-99.9,-100.00,NNE,12,3.0,-999.0,-999,0.00,,,0.00,,2013-05-08 00:32:00,
2013-05-07 19:42:00,74.0,-99.9,-100.00,NNE,12,3.0,-999.0,-999,0.00,,,0.00,,2013-05-08 00:42:00,
2013-05-07 19:52:00,74.0,-99.9,-100.00,NNE,12,3.0,-999.0,-999,0.00,,,0.00,,2013-05-08 00:52:00,
2013-05-07 20:00:00,70.0,-99.9,-100.00,NNW,338,1.0,-999.0,-999,0.00,,,0.00,,2013-05-08 01:00:00,
2013-05-07 20:02:00,71.0,-99.9,-100.00,NE,35,2.0,-999.0,-999,0.00,,,0.00,,2013-05-08 01:02:00,
2013-05-07 20:12:00,71.0,-99.9,-100.00,NE,35,2.0,-999.0,-999,0.00,,,0.00,,2013-05-08 01:12:00,
2013-05-07 20:22:00,71.0,-99.9,-100.00,NE,35,2.0,-999.0,-999,0.00,,,0.00,,2013-05-08 01:22:00,
2013-05-07 20:32:00,70.0,-99.9,-100.00,NNW,338,1.0,-999.0,-999,0.00,,,0.00,,2013-05-08 01:32:00,
2013-05-07 20:42:00,70.0,-99.9,-100.00,NNW,338,1.0,-999.0,-999,0.00,,,0.00,,2013-05-08 01:42:00,
2013-05-07 20:52:00,70.0,-99.9,-100.00,NNW,338,1.0,-999.0,-999,0.00,,,0.00,,2013-05-08 01:52:00,
2013-05-07 21:32:00,66.0,-99.9,-100.00,North,4,0.0,-999.0,-999,0.00,,,0.00,,2013-05-08 02:32:00,
2013-05-07 21:42:00,66.0,-99.9,-100.00,North,4,0.0,-999.0,-999,0.00,,,0.00,,2013-05-08 02:42:00,
2013-05-07 21:52:00,66.0,-99.9,-100.00,North,4,0.0,-999.0,-999,0.00,,,0.00,,2013-05-08 02:52:00,
2013-05-07 22:02:00,64.0,-99.9,-100.00,NNW,333,0.0,-999.0,-999,0.00,,,0.00,,2013-05-08 03:02:00,
2013-05-07 22:12:00,64.0,-99.9,-100.00,NNW,333,0.0,-999.0,-999,0.00,,,0.00,,2013-05-08 03:12:00,
2013-05-07 22:22:00,64.0,-99.9,-100.00,NNW,333,0.0,-999.0,-999,0.00,,,0.00,,2013-05-08 03:22:00,
2013-05-07 22:33:00,63.0,-99.9,-100.00,SE,135,1.0,-999.0,-999,0.00,,,0.00,,2013-05-08 03:33:00,
2013-05-07 22:43:00,63.0,-99.9,-100.00,SE,135,1.0,-999.0,-999,0.00,,,0.00,,2013-05-08 03:43:00,
2013-05-07 22:53:00,63.0,-99.9,-100.00,SE,135,1.0,-999.0,-999,0.00,,,0.00,,2013-05-08 03:53:00,
2013-05-07 23:02:00,61.0,-99.9,-100.00,SSE,168,0.0,-999.0,-999,0.00,,,0.00,,2013-05-08 04:02:00,
2013-05-07 23:13:00,61.0,-99.9,-100.00,SSE,168,0.0,-999.0,-999,0.00,,,0.00,,2013-05-08 04:13:00,
2013-05-07 23:23:00,61.0,-99.9,-100.00,SSE,168,0.0,-999.0,-999,0.00,,,0.00,,2013-05-08 04:23:00,
2013-05-07 23:33:00,60.0,-99.9,-100.00,ESE,107,0.0,-999.0,-999,0.00,,,0.00,,2013-05-08 04:33:00,
2013-05-07 23:43:00,60.0,-99.9,-100.00,ESE,107,0.0,-999.0,-999,0.00,,,0.00,,2013-05-08 04:43:00,
2013-05-07 23:53:00,60.0,-99.9,-100.00,ESE,107,0.0,-999.0,-999,0.00,,,0.00,,2013-05-08 04:53:00,